Change the Weather History Date:

Friday, November 29, 2013

  Actual Average Record
Temperature  
Mean Temperature 16 °F -  
Max Temperature 19 °F 19 °F 30 °F (2011)
Min Temperature 13 °F 9 °F -2 °F (2010)
Degree Days  
Heating Degree Days 49    
Moisture  
Dew Point -15 °F    
Average Humidity 22    
Maximum Humidity 79    
Minimum Humidity 5    
Precipitation  
Precipitation 0.00 in - - ()
Sea Level Pressure  
Sea Level Pressure 30.11 in    
Wind  
Wind Speed 15 mph ()    
Max Wind Speed 34 mph    
Max Gust Speed 45 mph    
Visibility 6.8 miles    
Events      
Averages and records for this station are not official NWS values.
T = Trace of Precipitation, MM = Missing Value Source: Averaged Metar Reports

Daily Weather History Graph

Daily Weather History Graph

Search for Another Location

Airport or City:

Trip Planner

Search our weather history database for the weather conditions in past years. The results will help you decide how hot, cold, wet, or windy it might be!

Date:

Astronomy

Nov. 29, 2013 Rise Set
Actual Time 7:47 AM CET 4:46 PM CET
Civil Twilight 7:14 AM CET 5:20 PM CET
Nautical Twilight 6:37 AM CET 5:57 PM CET
Astronomical Twilight 6:01 AM CET 6:33 PM CET
Moon 3:24 AM CET (11/29) 2:31 PM CET (11/29)
Length of Visible Light 10h 06m
Length of Day
8h 58m
Waning Crescent, 16% of the Moon is Illuminated
Nov 29
Waning Crescent
Dec 3
New
Dec 9
First Quarter
Dec 17
Full
Dec 25
Last Quarter

Hourly Weather History & Observations

Time (CET) Temp. Windchill Dew Point Humidity Pressure Visibility Wind Dir Wind Speed Gust Speed Precip Events Conditions
12:00 AM 17 °F - 8 °F 57%  in 7 mi NE 17.3 mph - -   Scattered Clouds
12:55 AM 17.6 °F 0.5 °F -0.4 °F 45% 30.15 in - ENE 21.9 mph 44.9 mph N/A   Clear
1:55 AM 17.6 °F 0.5 °F -18.4 °F 19% 30.15 in - NE 21.9 mph 38.0 mph N/A   Clear
2:00 AM 18 °F - -18 °F 7%  in 7 mi NE 21.9 mph - -  
2:55 AM 17.6 °F 4.3 °F -18.4 °F 19% 30.18 in - ENE 12.7 mph - N/A   Clear
3:55 AM 15.8 °F 3.4 °F -16.6 °F 23% 30.18 in - NE 10.4 mph - N/A   Clear
4:00 AM 16 °F - -16 °F 10%  in 7 mi NE 10.4 mph - -  
4:55 AM 15.8 °F 3.4 °F -14.8 °F 25% 30.18 in - ENE 10.4 mph 25.3 mph N/A   Clear
5:00 AM 16 °F - -16 °F 10%  in 7 mi ENE 10.4 mph - -  
5:55 AM 15.8 °F 1.4 °F -22.0 °F 17% 30.18 in - ENE 13.8 mph - N/A   Clear
6:00 AM 16 °F - -22 °F 6%  in 6 mi ENE 13.8 mph - -  
6:55 AM 17.6 °F 4.3 °F -22.0 °F 16% 30.18 in - NE 12.7 mph 29.9 mph N/A   Clear
7:00 AM 18 °F - -22 °F 5%  in 12 mi NE 12.7 mph - -  
7:55 AM 17.6 °F 5.0 °F -22.0 °F 16% 30.18 in - ENE 11.5 mph - N/A   Clear
8:00 AM 17 °F - -21 °F 6%  in 47 mi ENE 11.5 mph - -  
8:55 AM 17.6 °F 5.7 °F -20.2 °F 18% 30.18 in - ENE 10.4 mph - N/A   Clear
9:55 AM 17.6 °F 5.7 °F -22.0 °F 16% 30.18 in - ENE 10.4 mph - N/A   Clear
10:00 AM 17 °F - -22 °F 6%  in 47 mi ENE 10.4 mph - -  
10:55 AM 15.8 °F 1.4 °F -22.0 °F 17% 30.18 in - ENE 13.8 mph - N/A   Clear
11:00 AM 17 °F - -22 °F 6%  in 47 mi ENE 13.8 mph - -  
11:55 AM 17.6 °F 3.7 °F -22.0 °F 16% 30.15 in - ENE 13.8 mph - N/A   Clear
12:55 PM 17.6 °F 3.2 °F -20.2 °F 18% 30.15 in - ENE 15.0 mph - N/A   Clear
1:00 PM 18 °F - -21 °F 6%  in 47 mi ENE 15.0 mph - -   Clear
1:55 PM 17.6 °F 3.7 °F -20.2 °F 18% 30.15 in - ENE 13.8 mph - N/A   Clear
2:55 PM 17.6 °F 2.7 °F -20.2 °F 18% 30.09 in - ENE 16.1 mph - N/A   Clear
3:55 PM 17.6 °F 1.7 °F -20.2 °F 18% 30.09 in - ENE 18.4 mph - N/A   Clear
4:00 PM 17 °F - -19 °F 7%  in 37 mi ENE 18.4 mph - -   Clear
4:55 PM 17.6 °F 3.7 °F -18.4 °F 19% 30.09 in - ENE 13.8 mph - N/A   Clear
5:55 PM 17.6 °F -3.1 °F -20.2 °F 18% 30.06 in - NE 34.5 mph - N/A   Clear
6:00 PM 17 °F - -19 °F 7%  in 7 mi NE 34.5 mph - -   Clear
6:55 PM 15.8 °F -1.5 °F -16.6 °F 23% 30.04 in - ENE 20.7 mph - N/A   Clear
7:00 PM 15 °F - -16 °F 11%  in 6 mi ENE 20.7 mph - -   Clear
7:55 PM 15.8 °F -0.6 °F -13.0 °F 27% 30.04 in - NE 18.4 mph - N/A   Clear
8:00 PM 15 °F - -12 °F 14%  in 6 mi NE 18.4 mph - -   Clear
8:55 PM 14.0 °F -3.9 °F -7.6 °F 38% 30.01 in - NE 20.7 mph 32.2 mph N/A   Clear
9:00 PM 14 °F - -8 °F 22%  in 6 mi NE 20.7 mph - -   Clear
9:55 PM 14.0 °F -4.3 °F -4.0 °F 45% 29.98 in - NE 21.9 mph - N/A   Clear
10:00 PM 14 °F - -4 °F 28%  in 6 mi NE 21.9 mph - -   Clear
10:55 PM 14.0 °F -2.5 °F 3.2 °F 62% 29.95 in 6.2 mi ENE 17.3 mph - N/A   Scattered Clouds
11:00 PM 13 °F - 3 °F 52%  in 6 mi ENE 17.3 mph - -   Partly Cloudy
11:55 PM 14.0 °F 2.0 °F 8.6 °F 79% 29.92 in 6.2 mi NNW 9.2 mph - N/A   Scattered Clouds